Hourly Data Report for October 16, 2014

All times are specified in Local Standard Time (LST). Add 1 hour to adjust for Daylight Saving Time where and when it is observed.

KITCHENER/WATERLOO
ONTARIO

43°27'39.000" N
80°22'43.000" W
321.60 m
6144239
71368
YKF

Download Data

Hourly Data (October 2014)
Hourly Data Report for October 16, 2014
Temp Definition
°C
Dew Point Temp Definition
°C
Rel Hum Definition
%
Wind Dir Definition
10's deg

Wind Spd Definition
km/h
Visibility Definition
km
Stn Press Definition
kPa
Hmdx Definition


Wind Chill Definition


Weather Definition


TIME
00:00
01:00 Legend Double Dagger 11.5 11.1 97 35 8 0.8 96.97     Fog
02:00 Legend Double Dagger 12.2 11.7 97 LegendMM 4 0.6 96.95     Fog
03:00 Legend Double Dagger 11.9 11.4 97 30 5 1.0 96.87     LegendNANA
04:00 Legend Double Dagger 12.0 11.5 97 31 4 2.8 96.87     Fog
05:00 Legend Double Dagger 12.1 11.6 97 31 9 0.8 96.83     LegendNANA
06:00 Legend Double Dagger 12.3 11.8 97 28 5 1.0 96.84     Rain
07:00 Legend Double Dagger 12.6 12.1 97 27 8 1.6 96.85     Rain,Fog
08:00 Legend Double Dagger 13.1 12.6 97 28 9 2.4 96.84     Fog
09:00 Legend Double Dagger 13.4 12.9 97 30 11 4.8 96.81     Fog
10:00 Legend Double Dagger 14.2 13.3 94 33 8 16.1 96.77     LegendNANA
11:00 Legend Double Dagger 15.3 13.7 90 24 9 16.1 96.73     LegendNANA
12:00 Legend Double Dagger 16.5 13.2 81 24 15 16.1 96.67     LegendNANA
13:00 Legend Double Dagger 17.1 12.8 75 25 17 16.1 96.61     LegendNANA
14:00 Legend Double Dagger 17.2 12.3 73 27 17 16.1 96.56     LegendNANA
15:00 Legend Double Dagger 16.3 12.0 75 30 15 16.1 96.55     LegendNANA
16:00 Legend Double Dagger 14.8 12.6 87 26 18 16.1 96.55     LegendNANA
17:00 Legend Double Dagger 13.6 11.8 89 30 22 16.1 96.61     LegendNANA
18:00 Legend Double Dagger 12.7 11.3 91 28 18 16.1 96.64     LegendNANA
19:00 Legend Double Dagger 12.1 10.7 91 29 18 16.1 96.65     LegendNANA
20:00 Legend Double Dagger 11.2 9.8 91 30 9 16.1 96.63     LegendNANA
21:00 Legend Double Dagger 10.8 9.9 94 24 13 14.5 96.64     LegendNANA
22:00 Legend Double Dagger 11.2 10.0 92 26 18 16.1 96.59     LegendNANA
23:00 Legend Double Dagger 11.3 10.0 91 25 17 16.1 96.61     LegendNANA

Notes on Data Quality.

Legend

  • E = Estimated
  • M = Missing
  • NA = Not Available
  • ‡ = Partner data that is not subject to review by the National Climate Archives
Date modified: